Погода Остров Хейса

Погода Остров Хейса : погода сейчас, прогноз погоды и архив. Всё, что Вы хотите узнать о погоде Остров Хейса!

Поиск расширенной информации на нашем сайте:

Другие новости

Новости СМИ2

Главная страница сайта

Новости сайта

02.10.2013

Напоминаем, что на нашем новом сайте вы можете получить высокодетализированные прогнозы погоды по пунктам России, СНГ и мира (включающие важные для авиации метеовеличины, такие как направление и скорость ветра, видимость, явления погоды, количество и форма облачности, нижняя и верхняя граница облачности), а также ознакомиться с разнообразными материалами по авиационной метеорологии и подборкой полезных ссылок на эту тему.

Сайт Метеоцентр.Азия посвящён разработке технологий оптимизации авиаметеорологического обслуживания, включая проектирование и перспективное создание нескольких автоматизированных авиаметеорологических систем:
- система выпуска высокодетальных прогностических карт явлений погоды для нижнего воздушного пространства по России и ближнему зарубежью;
- система верификации прогнозов TAF (выпускаемых синоптиками официальных АМСГ РФ и ближнего зарубежья) и AUTOTAF (выпускаемых сайтом Метеоцентр.Азия) - выявление ошибок, онлайн-сопоставление с фактической погодой METAR, автоматическое внесение коррективов в прогнозы при резком отклонении фактической погоды от прогноза, подсчёт оправдываемости прогнозов по элементам и в целом;
- система обработки, анализа и отображения авиаметеорологической информации для применения провайдерами метеорологической информации.

Рекомендуем: Свадебные арки в Киеве - http://flordekor.com.ua/index.php?p=9 Флордекор.

Погода Остров Хейса - сегодня

Время (UTC), дата Ветер
(°,м/с) 
Видим.   Явления Облачность Т
(°С)
Тd
(°С)
f(%) Тe
(°С)
Pmin
(гПа)
dP
(гПа)
Po
(мм)
O2
(г/м3)
Тmin Tmax R s Состояние
почвы
15 26.04.17 310 (СЗ) 5{12}  20000 м  {снег}  10/6 700 м средняя, верхняя 
[Sc|Ac trans|Cs]
-14.7 -17.1 82 -20  1010.9  1.2  756  323           
03 27.04.17 270 (З) 20000 м    4/4 300 м 
[Sc]
-15 -17.3 83 -19  1011.1  -0.3  756  324           
06 27.04.17 260 (З) 20000 м    8/0 средняя 
[Ac trans]
-14.1 -16.8 80 -18  1010.2  -0.9  755  322           
09 27.04.17 210 (ЮЗ) 4000 м  слаб. снег  9/0 средняя 
[As op]
-12.9 -15.1 84 -16  1009.2  -1  755  320           
12 27.04.17 160 (Ю) 4000 м  слаб. ливневой снег  10/10 500 м кучево-дожд. 
[Cb cap]
-11.6 -12.9 90 -16  1007.4  -1.7  753  318           
15 27.04.17 200 (Ю) 20000 м  в посл. час ливневой снег  9/9 700 м 
[Sc]
-10 -12.2 84 -13  1006  -1.4  752  316           
18 27.04.17 160 (Ю) 20000 м  {ливн. осадки}  8/6 450 м средняя 
[Sc|Ac trans]
-12.4 -13.7 90 -17  1005.3  -0.8  752  319    -9.8  0.2     
21 27.04.17 320 (СЗ) 20000 м    3/3 300 м 
[Sc]
-15.6 -16.7 91 -16  1005.3  752  323           
00 28.04.17 100 (В) 20000 м    10/10 1320 м 
[Ac und]
-13.7 -15.2 88 -14  1005.8  0.6  752  320           
03 28.04.17 050 (СВ) 20000 м    10/0 средняя 
[Ac und]
-14 -15.7 87 -18  1007  1.1  753  321           
06 28.04.17 050 (СВ) 4000 м  слаб. снег  9/0 средняя 
[As op]
-14.2 -16.2 85 -19  1008.1  1.1  754  322           
12 28.04.17 050 (СВ) 20000 м  {снег}  9/9 540 м 
[Sc]
-15.6 -17.5 85 -20  1010  0.9  755  324           
15 28.04.17 360 (С) 20000 м    9/9 660 м 
[Sc]
-16.4 -18.6 83 -22  1011.1  1.1  756  326           
18 28.04.17 010 (С) 20000 м    9/9 500 м 
[Sc]
-16.8 -19 83 -21  1011.6  0.5  756  326    -13.3  0.0     
21 28.04.17 330 (СЗ) 20000 м    9/9 500 м 
[Sc]
-17.4 -19.5 84 -18  1011.8  0.2  757  327           
00 29.04.17 190 (Ю) 20000 м    9/9 450 м 
[Sc]
-17.8 -19.5 87 -20  1011.8  -0.1  757  328           
03 29.04.17 тихо ()   20000 м    9/9 450 м 
[Sc]
-17.5 -19.1 87 -18  1011.4  -0.4  756  327           
06 29.04.17 060 (СВ) 20000 м    9/9 450 м 
[Sc]
-17.1 -18.7 87 -20  1010.9  -0.4  756  326           
09 29.04.17 040 (СВ) 20000 м    9/9 450 м 
[Sc]
-17.3 -18.9 87 -23  1011.3  0.4  756  327           
12 29.04.17 360 (С) 20000 м    3/0 средняя 
[Ac trans]
-17.4 -19.3 85 -21  1012.4  1.1  757  327           
18 29.04.17 010 (С) 9{13}  20000 м  позёмок  6/0 средняя, верхняя 
[Ac trans|Ci fib]
-18 -20.2 83 -27  1015  1.8  759  329    -16.7       
00 30.04.17 300 (СЗ) 4{12}  20000 м    8/8 450 м 
[Sc]
-16.1 -18.5 82 -21  1018.2  1.5  761  328           
09 30.04.17 320 (СЗ) 6{11}  20000 м  позёмок  9/9 420 м 
[Sc]
-13.5 -16.7 77 -20  1022.6  1.2  765  326           
12 30.04.17 320 (СЗ) 7{11}  20000 м  позёмок  9/6 360 м верхняя 
[Sc|Ci fib]
-14.3 -16.3 85 -21  1024.7  2.1  766  327           
18 30.04.17 340 (С) 3{11}  20000 м    8/8 400 м 
[Sc]
-16 -19.3 76 -20  1028.1  1.8  769  331    -13.3       
Время (UTC), дата Ветер
(°,м/с) 
Видим.   Явления Облачность Т
(°С)
Тd
(°С)
f(%) Тe
(°С)
Pmin
(гПа)
dP
(гПа)
Po
(мм)
O2
(г/м3)
Тmin Tmax R s Состояние
почвы

Для получения пояснительной информации подведите курсор к названию столбца.

ПОГОДА Остров Хейса - архив

Всё, что Вы хотите узнать о погоде Остров Хейса - удобно и подробно!

Выберите нужную дату (начиная с 1 января 2015* года) и нажмите кнопку "Найти".
Будут отображены архивные сводки погоды по пункту Остров Хейса, начиная с указанной даты.


Отображать данные в формате CSV (для использования в таблицах Excel)


Внимание! Наш архив погоды предназначен исключительно для личного некоммерческого использования в познавательных целях. Если Вам необходимы официальные справки о состоянии погоды (для производственных, юридических, коммерческих и т.п. целей), обращайтесь в органы Росгидромета.

*Примечание: данная дата относится к архиву по метеостанциям СССР (Россия, СНГ, Балтия).
Архив по метеостанциям Зарубежной Европы и Азии (кроме Китая) хранится 10 дней, по другим регионам земного шара (Китай, Африка, Америка, Австралия, Океания) - 1 день.

Остров Хейса - район местоположения метеостанции


Название, широта, долгота, высота метеостанции:
Остров Хейса (Обсерватория Им.Кренкеля) 80.6°ш. 58.1°д. 22 м над ур. моря [Российская Федерация]

Дополнительная информация

В oтличие oт бoльшинства пoгoдных сайтoв мы публикуем пoдрoбную метеoинфoрмацию в детальнoм прoфессиoнальнoм фoрмате.

Характеристики температуры и влажнoсти вoздуха измеряются на высoте 2 м в тени вдали oт зданий и деревьев.
Скoрoсть ветра измеряется на высoте 10 м (на урoвне рoста челoвека скoрoсть ветра ниже в 1.5-2 раза). Если метеoстанция нахoдится в гoрoде или в лесу, тo скoрoсть ветра занижена на 2-4 м/с пo сравнению с oткрытым местoм. Скoрoсть ветра над акватoриями крупных рек и oзёр, а также на вершинах хoлмoв на 2-5 м/с выше, чем в oбычных услoвиях.
Атмoсфернoе давление в разных тoчках местнoсти мoжет значительнo oтличаться oт давления на метеoстанции, в зависимoсти oт услoвий рельефа (при пoдъёме на 10 м давление пoнижается примернo на 1 мм рт.ст.).